Voltar ao catálogo

OPS 7724

AtivoNavegaçãoHEO
NORAD 6791·PAYLOAD·🇺🇸 United States

Lançado Aug 21, 1973 de Vandenberg Space Force Base

Loading…

Próximas Passagens (próximas 24 horas)

TLE

AtualizadoSource: Space-Track

Época: Sep 13, 2026, 09:15 UTC

1 06791U 73056A   26256.38605959  .00000330  00000-0  34049-3 0  9999
2 06791  62.8903  11.0076 7342705 281.5631  11.2132  2.00658493 51386

Acompanhe OPS 7724 em tempo real com AllMySat

Download on the App Store